Location: North Runcton
(52.7000°N, 0.4333°E)
Time: 16:36:38
(UTC+00:00)

Cosmos 2298 Rocket - Pass Details

Date: 19 May 2025
Orbit: 773 x 782 km, 74.0° (Epoch: 12 June)

Event Time Altitude Azimuth Distance (km) Brightness Sun altitude
Rises 21:15:39 0° 334° (NNW) 3,282 9.2 -9.6°
Reaches altitude 10° 21:18:04 10° 337° (NNW) 2,350 8.0 -9.8°
Maximum altitude 21:23:24 72° 62° (ENE) 825 4.1 -10.3°
Enters shadow 21:27:58 14° 146° (SE) 2,055 5.5 -10.7°
